Change the Weather History Date:

Saturday, April 5, 2014

  Actual Average (KHKY) Record (KHKY)
Temperature  
Mean Temperature 60 °F -  
Max Temperature 69 °F 65 °F 86 °F (1988)
Min Temperature 51 °F 44 °F 27 °F (1972)
Degree Days  
Heating Degree Days 5    
Growing Degree Days 10 (Base 50)    
Moisture  
Dew Point 38 °F    
Average Humidity 48    
Maximum Humidity 76    
Minimum Humidity 21    
Precipitation  
Precipitation 0.00 in - - ()
Sea Level Pressure  
Sea Level Pressure 29.96 in    
Wind  
Wind Speed 5 mph (WNW)    
Max Wind Speed 9 mph    
Max Gust Speed -    
Visibility 10 miles    
Events      
Averages and records for this station are not official NWS values.
T = Trace of Precipitation, MM = Missing Value Source: NWS Daily Summary

Daily Weather History Graph

Daily Weather History Graph

Search for Another Location

Airport or City:

Trip Planner

Search our weather history database for the weather conditions in past years. The results will help you decide how hot, cold, wet, or windy it might be!

Date:

Astronomy

Apr. 05, 2014 Rise Set
Actual Time 7:07 AM EDT 7:51 PM EDT
Civil Twilight 6:41 AM EDT 8:16 PM EDT
Nautical Twilight 6:11 AM EDT 8:47 PM EDT
Astronomical Twilight 5:40 AM EDT 9:18 PM EDT
Moon 11:21 AM EDT (4/5) 12:52 AM EDT (4/5)
Length of Visible Light 13h 34m
Length of Day
12h 43m
Waxing Crescent, 34% of the Moon is Illuminated
Apr 5
Waxing Crescent
Apr 7
First Quarter
Apr 15
Full
Apr 22
Last Quarter
Apr 29
New

Hourly Weather History & Observations

Time (EDT) Temp. Dew Point Humidity Pressure Visibility Wind Dir Wind Speed Gust Speed Precip Events Conditions
12:15 AM 63.5 °F 51.8 °F 66% 29.87 in 10.0 mi WSW 6.9 mph - N/A   Clear
12:35 AM 62.6 °F 51.8 °F 68% 29.88 in 10.0 mi WSW 5.8 mph - N/A   Clear
12:55 AM 61.9 °F 52.2 °F 70% 29.88 in 10.0 mi WSW 5.8 mph - N/A   Clear
1:15 AM 61.2 °F 51.8 °F 71% 29.87 in 10.0 mi WSW 5.8 mph - N/A   Clear
1:35 AM 60.1 °F 51.8 °F 74% 29.87 in 10.0 mi SW 5.8 mph - N/A   Clear
1:55 AM 58.6 °F 50.9 °F 75% 29.87 in 10.0 mi SW 6.9 mph - N/A   Clear
2:15 AM 58.3 °F 50.5 °F 75% 29.87 in 10.0 mi SW 6.9 mph - N/A   Clear
2:35 AM 58.1 °F 50.0 °F 74% 29.88 in 10.0 mi SW 8.1 mph - N/A   Clear
2:55 AM 57.9 °F 49.1 °F 72% 29.88 in 10.0 mi SW 6.9 mph - N/A   Clear
3:15 AM 57.2 °F 48.2 °F 72% 29.88 in 10.0 mi SW 5.8 mph - N/A   Clear
3:35 AM 56.7 °F 47.7 °F 72% 29.88 in 10.0 mi WSW 3.5 mph - N/A   Clear
3:55 AM 56.3 °F 47.7 °F 73% 29.89 in 10.0 mi West 4.6 mph - N/A   Clear
4:15 AM 56.5 °F 47.7 °F 72% 29.89 in 10.0 mi WSW 8.1 mph - N/A   Clear
4:35 AM 56.1 °F 47.8 °F 74% 29.89 in 10.0 mi WSW 6.9 mph - N/A   Clear
4:55 AM 55.0 °F 47.5 °F 76% 29.90 in 10.0 mi SW 5.8 mph - N/A   Clear
5:15 AM 55.2 °F 47.3 °F 75% 29.90 in 10.0 mi West 6.9 mph - N/A   Clear
5:35 AM 55.4 °F 46.4 °F 72% 29.91 in 10.0 mi WNW 3.5 mph - N/A   Clear
5:55 AM 54.7 °F 46.0 °F 73% 29.91 in 10.0 mi WNW 3.5 mph - N/A   Clear
6:15 AM 53.8 °F 46.0 °F 75% 29.92 in 10.0 mi Calm Calm - N/A   Clear
6:35 AM 54.1 °F 45.9 °F 74% 29.93 in 10.0 mi Calm Calm - N/A   Clear
6:55 AM 53.8 °F 43.7 °F 69% 29.93 in 10.0 mi West 5.8 mph - N/A   Clear
7:15 AM 52.9 °F 42.3 °F 67% 29.94 in 10.0 mi West 5.8 mph - N/A   Clear
7:35 AM 52.9 °F 41.9 °F 66% 29.95 in 10.0 mi WNW 4.6 mph - N/A   Clear
7:55 AM 51.4 °F 42.8 °F 72% 29.96 in 10.0 mi NW 5.8 mph - N/A   Clear
8:15 AM 53.1 °F 43.7 °F 71% 29.96 in 10.0 mi NW 5.8 mph - N/A   Clear
8:35 AM 54.1 °F 43.2 °F 66% 29.97 in 10.0 mi NW 3.5 mph - N/A   Clear
8:55 AM 55.4 °F 41.9 °F 60% 29.98 in 10.0 mi NNW 6.9 mph - N/A   Clear
9:15 AM 56.3 °F 40.5 °F 55% 29.99 in 10.0 mi NNW 8.1 mph - N/A   Clear
9:35 AM 56.5 °F 40.1 °F 54% 29.99 in 10.0 mi NNW 6.9 mph - N/A   Clear
9:55 AM 56.5 °F 39.0 °F 52% 29.99 in 10.0 mi WNW 8.1 mph - N/A   Clear
10:15 AM 57.7 °F 37.9 °F 48% 30.00 in 10.0 mi WNW 9.2 mph - N/A   Clear
10:35 AM 58.3 °F 37.4 °F 46% 30.01 in 10.0 mi WNW 6.9 mph - N/A   Clear
10:55 AM 58.6 °F 36.7 °F 44% 30.01 in 10.0 mi NW 8.1 mph - N/A   Clear
11:15 AM 59.2 °F 36.7 °F 43% 30.01 in 10.0 mi WNW 8.1 mph - N/A   Clear
11:35 AM 60.1 °F 36.5 °F 41% 30.01 in 10.0 mi NW 5.8 mph - N/A   Clear
11:55 AM 60.1 °F 35.1 °F 39% 30.01 in 10.0 mi Calm Calm - N/A   Clear
12:15 PM 61.3 °F 35.8 °F 39% 30.01 in 10.0 mi ENE 3.5 mph - N/A   Clear
12:35 PM 61.3 °F 35.8 °F 39% 30.01 in 10.0 mi SW 3.5 mph - N/A   Clear
12:55 PM 62.2 °F 33.8 °F 35% 30.01 in 10.0 mi WNW 4.6 mph - N/A   Clear
1:15 PM 61.9 °F 33.6 °F 35% 30.01 in 10.0 mi Calm Calm - N/A   Clear
1:35 PM 63.1 °F 34.7 °F 35% 30.00 in 10.0 mi West 3.5 mph - N/A   Clear
1:55 PM 64.6 °F 34.9 °F 33% 29.99 in 10.0 mi NW 6.9 mph - N/A   Clear
2:15 PM 63.9 °F 33.6 °F 32% 29.99 in 10.0 mi Calm Calm - N/A   Clear
2:35 PM 65.3 °F 32.7 °F 30% 29.99 in 10.0 mi Calm Calm - N/A   Clear
2:55 PM 66.4 °F 32.2 °F 28% 29.98 in 10.0 mi Calm Calm - N/A   Clear
3:15 PM 66.6 °F 31.6 °F 27% 29.97 in 10.0 mi Calm Calm - N/A   Clear
3:35 PM 67.1 °F 31.6 °F 27% 29.98 in 10.0 mi SSW 4.6 mph - N/A   Clear
3:55 PM 67.1 °F 31.8 °F 27% 29.97 in 10.0 mi Calm Calm - N/A   Clear
4:15 PM 68.9 °F 31.8 °F 25% 29.96 in 10.0 mi Calm Calm - N/A   Clear
4:35 PM 68.9 °F 32.0 °F 25% 29.96 in 10.0 mi Calm Calm - N/A   Clear
4:55 PM 69.4 °F 32.0 °F 25% 29.96 in 10.0 mi Calm Calm - N/A   Clear
5:15 PM 68.9 °F 28.4 °F 22% 29.96 in 10.0 mi South 3.5 mph - N/A   Clear
5:35 PM 69.4 °F 30.4 °F 23% 29.96 in 10.0 mi NNE 4.6 mph - N/A   Clear
5:55 PM 69.6 °F 28.0 °F 21% 29.95 in 10.0 mi Calm Calm - N/A   Clear
6:15 PM 69.1 °F 31.5 °F 25% 29.96 in 10.0 mi NNE 3.5 mph - N/A   Clear
6:35 PM 68.9 °F 29.1 °F 23% 29.97 in 10.0 mi Calm Calm - N/A   Clear
6:55 PM 68.4 °F 29.8 °F 24% 29.97 in 10.0 mi Calm Calm - N/A   Clear
7:15 PM 67.5 °F 30.0 °F 25% 29.98 in 10.0 mi Calm Calm - N/A   Clear
7:35 PM 67.5 °F 28.9 °F 24% 29.98 in 10.0 mi Calm Calm - N/A   Clear
7:55 PM 65.8 °F 30.2 °F 26% 29.98 in 10.0 mi Calm Calm - N/A   Clear
8:15 PM 63.7 °F 30.4 °F 29% 29.98 in 10.0 mi Calm Calm - N/A   Clear
8:35 PM 65.3 °F 31.8 °F 29% 29.99 in 10.0 mi Calm Calm - N/A   Clear
8:55 PM 63.7 °F 31.8 °F 30% 29.99 in 10.0 mi Calm Calm - N/A   Clear
9:15 PM 62.6 °F 31.6 °F 31% 30.00 in 10.0 mi NE 3.5 mph - N/A   Clear
9:35 PM 62.2 °F 31.1 °F 31% 30.01 in 10.0 mi NE 4.6 mph - N/A   Clear
9:55 PM 61.9 °F 31.1 °F 31% 30.02 in 10.0 mi ENE 4.6 mph - N/A   Clear
10:15 PM 59.9 °F 31.6 °F 34% 30.03 in 10.0 mi NE 4.6 mph - N/A   Clear
10:35 PM 58.1 °F 32.7 °F 38% 30.04 in 10.0 mi NE 4.6 mph - N/A   Clear
10:55 PM 57.9 °F 32.2 °F 38% 30.04 in 10.0 mi NE 6.9 mph - N/A   Clear
11:15 PM 56.5 °F 33.1 °F 41% 30.04 in 10.0 mi NE 5.8 mph - N/A   Clear
11:35 PM 56.1 °F 32.4 °F 41% 30.04 in 10.0 mi NE 4.6 mph - N/A   Clear
11:55 PM 54.7 °F 32.9 °F 44% 30.05 in 10.0 mi NNE 5.8 mph - N/A   Clear